Starlink 3872

operational
NORAD ID: 52453 Int'l Des: 2022-049 Owner: SPXS Country: US Constellation: starlink
LEOCIRCULAR

关于 Starlink 3872

正在加载描述...

实时位置

正在加载3D地球...

即将过境

高度历史

Altitude vs Time

uPlot chart will show altitude changes over time

两行轨道根数

1 52453U 22049C 25304.66890850 .00001436 00000-0 10832-3 0 9993
2 52453 53.2185 288.3177 0001546 87.8294 272.2875 15.08839990192631
Epoch: Oct 31, 2025 • Age: 18 hours

当前状态

高度 545.3 km
速度 7.60 km/s
星下点 53.34°N, 172.62°W
发射日期 May 6, 2022
运行时间 3.4 years
类型 internet

技术详情

分类 Payload
质量 297.00 kg
干质量 220.00 kg
总质量 297.00 kg
长度 0.20 m
直径 2.80 m
跨度 9.00 m
形状 Box + pan
制造商 SPXS
平台类型 Starlink
阶段状态 In Orbit
所有者/国家 SPXS/US

大型星座

Loading constellations...